Regional Weather Roundup
Issued by NWS

Home | Current Version | Previous Version | Graphics & Text | Print | Product List | Glossary On
Versions: 1 2 3 4 5 6 7 8 9 10 11 12 13 14 15 16 17 18 19 20 21 22 23 24 25 26 27 28 29 30 31 32 33 34 35 36 37 38 39 40 41 42 43 44 45 46 47 48 49 50
734
ASUS43 KDMX 300303
RWRIA

WEATHER ROUNDUP FOR IOWA
NATIONAL WEATHER SERVICE DES MOINES IA
1000 PM CDT FRI JUL 29 2016

NOTE: "FAIR" INDICATES FEW OR NO CLOUDS BELOW 12,000 FEET WITH NO
SIGNIFICANT WEATHER AND/OR OBSTRUCTIONS TO VISIBILITY.

* - THESE STATIONS ARE NOT NWS STATIONS...THUS NOT UNDER NWS
QUALITY CONTROL.  THEY ALSO DO NOT REPORT WEATHER SUCH
AS PRECIPITATION OR FOG.

IAZ001>003-012>014-020>022-031>034-043>046-300400-
   NORTHWEST IOWA

CITY           SKY/WX    TMP DP  RH WIND       PRES   REMARKS
CARROLL *      CLOUDY    68  64  88 CALM      30.03R
CHEROKEE *     CLEAR     67  64  90 SE3       30.05R
DENISON *      CLOUDY    64  63  94 CALM      30.03R
LE MARS *      MOCLDY    68  63  83 CALM      30.05R
SHELDON *      CLEAR     63  61  94 NE5       30.05R
SIOUX CITY     CLEAR     73  62  68 E5        30.03R
SPENCER        CLEAR     63  57  81 NE6       30.05R
STORM LAKE *   MOCLDY    66  61  82 CALM      30.06R
$$

IAZ055>058-069>071-079>083-090>094-300400-
   SOUTHWEST IOWA

CITY           SKY/WX    TMP DP  RH WIND       PRES   REMARKS
ATLANTIC *     CLEAR     66  64  94 NE5       30.03S FOG
CLARINDA *       N/A     66  64  94 MISG      30.04R
COUNCIL BLFS *   N/A     68  63  83 E8        30.04R
CRESTON *      CLOUDY    68  63  83 N7        30.04R
HARLAN  *      CLEAR     64  61  88 CALM      30.07R
LAMONI         CLOUDY    68  64  87 N7        30.01R
RED OAK *      CLEAR     66  63  88 CALM      30.03R
SHENANDOAH *     N/A     66  66 100 N5        30.03R
$$

IAZ047>049-059>061-072>074-084-300400-
   CENTRAL IOWA

CITY           SKY/WX    TMP DP  RH WIND       PRES   REMARKS
AMES           CLOUDY    69  66  90 N5        30.01R
ANKENY *         N/A    N/A N/A N/A MISG        N/A
BOONE *          N/A     68  64  88 NE3       30.01R
CHARITON *       N/A    N/A N/A N/A MISG        N/A
DES MOINES     MOCLDY    68  64  87 NW5       30.00R
GRINNELL*      CLOUDY    68  64  87 CALM      30.01R
KNOXVILLE *    CLOUDY    68  64  88 N5        29.98S
MARSHALLTOWN   CLOUDY    67  66  97 NE6       29.99S
NEWTON *       CLOUDY    68  66  94 N6        30.00R
PELLA *        CLOUDY    68  66  93 N3        30.00S
PERRY *        CLOUDY    68  66  95 W3        30.02R
$$

IAZ004>006-015-016-023>025-035-036-300400-
   NORTH CENTRAL IOWA

CITY           SKY/WX    TMP DP  RH WIND       PRES   REMARKS
ALGONA *       CLOUDY    70  64  83 N5        30.04R
ESTHERVILLE    CLEAR     61  59  93 N5        30.05R
FORT DODGE *   CLOUDY    66  63  88 N5        30.04R
MASON CITY     CLOUDY    68  64  87 N3        30.04R
FOREST CITY *  CLOUDY    68  63  83 CALM      30.03S
IOWA FALLS *   CLOUDY    69  65  87 CALM      30.03R
$$

IAZ007>011-017>019-026>030-037>042-050>054-066-300400-
   NORTHEAST IOWA

CITY           SKY/WX    TMP DP  RH WIND       PRES   REMARKS
CEDAR RAPIDS   CLOUDY    68  67  96 N8        29.96S
CHARLES CITY * CLOUDY    68  68 100 NE6       30.02S
CLINTON *      CLOUDY    70  67  90 E6        29.97S
DECORAH *      CLOUDY    66  66 100 CALM      30.01S
DUBUQUE        CLOUDY    68  67  96 NE8       30.00R
MONTICELLO *   MOCLDY    68  66  94 N3        29.97S
OELWEIN *      CLOUDY    66  64  94 CALM      30.01S
WATERLOO       CLOUDY    68  65  90 N5        29.99S
$$

IAZ064-065-067-068-078-300400-
   EAST CENTRAL IOWA

CITY           SKY/WX    TMP DP  RH WIND       PRES   REMARKS
DAVENPORT      MOCLDY    67  64  90 NE6       29.96R
IOWA CITY      CLOUDY    70  66  87 N8        29.97S
MT. PLEASANT * CLEAR     68  68 100 N5        29.95F
MUSCATINE *    CLOUDY    70  66  88 NW6       29.95S
QUAD CITIES    CLOUDY    71  66  84 E8        29.95R
$$

IAZ062-063-075>077-085>089-095>099-300400-
   SOUTHEAST IOWA

CITY           SKY/WX    TMP DP  RH WIND       PRES   REMARKS
BURLINGTON     PTCLDY    70  67  90 N7        29.94S
FAIRFIELD *    PTCLDY    66  64  94 NW5       29.96S
KEOKUK *       PTCLDY    70  66  88 NW5       29.95R
CENTERVILLE *  MOCLDY    66  64  94 CALM      30.01R
OTTUMWA        PTCLDY    65  63  93 NW6       29.98S
WASHINGTON *   CLOUDY    68  68 100 N5        29.97S
$$

ABBREVIATIONS USED IN REMARKS
   TC - TEMPERATURES IN CELSIUS
  WCI - WIND CHILL INDEX
   HX - HEAT INDEX
  VSB - VISIBILITY
$$





USA.gov is the U.S. government's official web portal to all federal, state and local government web resources and services.